When you browse on this site, cookies collect data to enhance your experience and personalize the content and advertising you see.
Visit our Privacy Policy to learn more. By continuing to use the site, you agree to this use of cookies and data.
  • In Hungary
  • List of Countries
  • For 7 days
  • Water Temperature
  • Satellite Maps
  • Weather Map
  • News
  • Weather Widgets
  • user-avatar
    Login

    Hourly Weather Fleurus

    Today, 19 January, Saturday

    Time Temperature Precipitation Wind Pressure Humidity
    00:00 -2°C° 0 mm 3 mps 749 mmHg 82%
    01:00 -2°C° 0 mm 3 mps 748 mmHg 82%
    02:00 -2°C° 0 mm 3 mps 748 mmHg 83%
    03:00 -2°C° 0 mm 3 mps 748 mmHg 83%
    04:00 -2°C° 0 mm 3 mps 747 mmHg 83%
    05:00 -2°C° 0 mm 3 mps 747 mmHg 83%
    06:00 -2°C° 0 mm 3 mps 747 mmHg 82%
    07:00 -3°C° 0 mm 4 mps 747 mmHg 79%
    08:00 -3°C° 0 mm 4 mps 746 mmHg 76%
    09:00 -2°C° 0 mm 4 mps 746 mmHg 73%
    10:00 -1°C° 0 mm 4 mps 746 mmHg 66%
    11:00 0°C° 0 mm 4 mps 746 mmHg 60%
    12:00 +1°C° 0 mm 4 mps 746 mmHg 53%
    13:00 +1°C° 0 mm 4 mps 745 mmHg 54%
    14:00 +2°C° 0 mm 3 mps 745 mmHg 55%
    15:00 +2°C° 0 mm 3 mps 744 mmHg 56%
    16:00 0°C° 0 mm 3 mps 744 mmHg 61%
    17:00 -1°C° 0 mm 3 mps 744 mmHg 65%
    18:00 -2°C° 0 mm 3 mps 744 mmHg 70%
    19:00 -2°C° 0 mm 3 mps 744 mmHg 71%
    20:00 -2°C° 0 mm 3 mps 744 mmHg 71%
    21:00 -2°C° 0 mm 3 mps 744 mmHg 72%
    22:00 -2°C° 0 mm 3 mps 745 mmHg 72%
    23:00 -2°C° 0 mm 2 mps 745 mmHg 71%

    Tomorrow, 20 January, Sunday

    Time Temperature Precipitation Wind Pressure Humidity
    00:00 -2°C° 0 mm 2 mps 745 mmHg 71%
    01:00 -2°C° 0 mm 2 mps 745 mmHg 70%
    02:00 -2°C° 0 mm 2 mps 745 mmHg 70%
    03:00 -2°C° 0 mm 2 mps 745 mmHg 70%
    04:00 -2°C° 0 mm 2 mps 745 mmHg 70%
    05:00 -3°C° 0 mm 2 mps 745 mmHg 69%
    06:00 -3°C° 0 mm 2 mps 745 mmHg 69%
    07:00 -2°C° 0 mm 2 mps 746 mmHg 67%
    08:00 -2°C° 0 mm 2 mps 746 mmHg 64%
    09:00 +1°C° 0 mm 1 mps 747 mmHg 62%
    10:00 +1°C° 0 mm 2 mps 747 mmHg 58%
    11:00 +2°C° 0 mm 2 mps 747 mmHg 55%
    12:00 +3°C° 0 mm 2 mps 747 mmHg 51%
    13:00 +3°C° 0 mm 2 mps 747 mmHg 53%
    14:00 +2°C° 0 mm 2 mps 747 mmHg 55%
    15:00 +2°C° 0 mm 2 mps 748 mmHg 56%
    16:00 +1°C° 0 mm 2 mps 748 mmHg 60%
    17:00 -1°C° 0 mm 2 mps 749 mmHg 63%
    18:00 -3°C° 0 mm 2 mps 749 mmHg 66%
    19:00 -3°C° 0 mm 2 mps 750 mmHg 66%
    20:00 -1°C° 0 mm 1 mps 750 mmHg 66%
    21:00 -1°C° 0 mm 1 mps 751 mmHg 66%
    22:00 -1°C° 0 mm 1 mps 751 mmHg 66%
    23:00 -1°C° 0 mm 1 mps 752 mmHg 65%

    Day after tomorrow, 21 January, Monday

    Time Temperature Precipitation Wind Pressure Humidity
    00:00 -1°C° 0 mm 1 mps 752 mmHg 64%
    01:00 -1°C° 0 mm 1 mps 752 mmHg 64%
    02:00 -1°C° 0 mm 1 mps 752 mmHg 64%
    03:00 -1°C° 0 mm 1 mps 752 mmHg 63%
    04:00 -1°C° 0 mm 1 mps 753 mmHg 63%
    05:00 -1°C° 0 mm 1 mps 753 mmHg 63%
    06:00 -2°C° 0 mm 1 mps 753 mmHg 63%
    07:00 -1°C° 0 mm 1 mps 753 mmHg 60%
    08:00 -2°C° 0 mm 0 mps 753 mmHg 57%
    09:00 -1°C° 0 mm 0 mps 754 mmHg 54%
    10:00 0°C° 0 mm 0 mps 753 mmHg 50%
    11:00 +1°C° 0 mm 0 mps 753 mmHg 45%
    12:00 +2°C° 0 mm 0 mps 753 mmHg 40%
    13:00 +3°C° 0 mm 1 mps 753 mmHg 43%
    14:00 +3°C° 0 mm 1 mps 752 mmHg 45%
    15:00 +3°C° 0 mm 1 mps 752 mmHg 48%
    16:00 +2°C° 0 mm 1 mps 751 mmHg 51%
    17:00 -1°C° 0 mm 2 mps 751 mmHg 55%
    18:00 -2°C° 0 mm 2 mps 751 mmHg 58%
    19:00 -4°C° 0 mm 3 mps 750 mmHg 60%
    20:00 -4°C° 0 mm 3 mps 750 mmHg 61%
    21:00 -4°C° 0 mm 4 mps 749 mmHg 62%
    22:00 -4°C° 0 mm 4 mps 749 mmHg 62%
    23:00 -5°C° 0 mm 5 mps 748 mmHg 62%

    22 January, Tuesday

    Time Temperature Precipitation Wind Pressure Humidity
    00:00 -5°C° 0 mm 5 mps 747 mmHg 61%
    01:00 -4°C° 0 mm 6 mps 746 mmHg 62%
    02:00 -4°C° 0 mm 6 mps 745 mmHg 62%
    03:00 -4°C° 0 mm 7 mps 743 mmHg 62%
    04:00 -3°C° 0.1 mm 7 mps 742 mmHg 66%
    05:00 -4°C° 0.1 mm 8 mps 740 mmHg 70%
    06:00 -4°C° 0.1 mm 9 mps 739 mmHg 75%
    07:00 -3°C° 0.8 mm 9 mps 738 mmHg 78%
    08:00 -3°C° 0.8 mm 10 mps 738 mmHg 81%
    09:00 -3°C° 0.8 mm 10 mps 737 mmHg 85%
    10:00 -2°C° 0.3 mm 8 mps 737 mmHg 83%
    11:00 -1°C° 0.3 mm 6 mps 736 mmHg 81%
    12:00 0°C° 0.3 mm 4 mps 736 mmHg 80%
    13:00 0°C° 0 mm 4 mps 736 mmHg 81%
    14:00 0°C° 0 mm 4 mps 735 mmHg 83%
    15:00 0°C° 0 mm 3 mps 735 mmHg 84%
    16:00 0°C° 0 mm 3 mps 735 mmHg 87%
    17:00 -1°C° 0 mm 3 mps 734 mmHg 90%
    18:00 -2°C° 0 mm 3 mps 734 mmHg 92%
    19:00 -2°C° 0 mm 3 mps 734 mmHg 92%
    20:00 -2°C° 0 mm 3 mps 734 mmHg 93%
    21:00 -2°C° 0 mm 3 mps 734 mmHg 93%
    22:00 -2°C° 0 mm 2 mps 733 mmHg 93%
    23:00 -3°C° 0 mm 2 mps 733 mmHg 93%

    23 January, Wednesday

    Time Temperature Precipitation Wind Pressure Humidity
    00:00 -3°C° 0 mm 2 mps 733 mmHg 93%
    01:00 -3°C° 0 mm 2 mps 732 mmHg 92%
    02:00 -4°C° 0 mm 2 mps 732 mmHg 92%
    03:00 -4°C° 0 mm 2 mps 732 mmHg 92%
    04:00 -4°C° 0 mm 2 mps 732 mmHg 92%
    05:00 -4°C° 0 mm 2 mps 732 mmHg 93%
    06:00 -2°C° 0 mm 1 mps 732 mmHg 93%
    07:00 -2°C° 0 mm 1 mps 732 mmHg 92%
    08:00 -1°C° 0 mm 1 mps 732 mmHg 91%
    09:00 -1°C° 0 mm 1 mps 732 mmHg 90%
    10:00 0°C° 0 mm 1 mps 732 mmHg 89%
    11:00 +1°C° 0 mm 1 mps 732 mmHg 87%
    12:00 +1°C° 0 mm 1 mps 732 mmHg 85%
    13:00 +1°C° 0 mm 1 mps 733 mmHg 86%
    14:00 +1°C° 0 mm 1 mps 733 mmHg 87%
    15:00 +1°C° 0 mm 1 mps 733 mmHg 89%
    16:00 0°C° 0 mm 1 mps 733 mmHg 90%
    17:00 0°C° 0 mm 1 mps 734 mmHg 91%
    18:00 -1°C° 0 mm 1 mps 734 mmHg 92%
    19:00 -1°C° 0 mm 1 mps 735 mmHg 92%
    20:00 -4°C° 0 mm 2 mps 735 mmHg 92%
    21:00 -4°C° 0 mm 2 mps 736 mmHg 93%
    22:00 -4°C° 0 mm 2 mps 736 mmHg 93%
    23:00 -4°C° 0 mm 2 mps 736 mmHg 94%

    24 January, Thursday

    Time Temperature Precipitation Wind Pressure Humidity
    00:00 -4°C° 0 mm 2 mps 736 mmHg 94%
    01:00 -4°C° 0 mm 2 mps 736 mmHg 94%
    02:00 -4°C° 0 mm 2 mps 737 mmHg 94%
    03:00 -4°C° 0 mm 2 mps 737 mmHg 94%
    04:00 -5°C° 0 mm 3 mps 737 mmHg 94%
    05:00 -5°C° 0 mm 4 mps 737 mmHg 94%
    06:00 -7°C° 0 mm 4 mps 738 mmHg 94%
    07:00 -6°C° 0 mm 5 mps 738 mmHg 91%
    08:00 -5°C° 0 mm 6 mps 739 mmHg 88%
    09:00 -5°C° 0 mm 6 mps 739 mmHg 85%
    10:00 -4°C° 0 mm 6 mps 739 mmHg 81%
    11:00 -4°C° 0 mm 6 mps 740 mmHg 76%
    12:00 -3°C° 0 mm 6 mps 740 mmHg 72%
    13:00 -4°C° 0 mm 6 mps 740 mmHg 73%
    14:00 -4°C° 0 mm 5 mps 740 mmHg 74%
    15:00 -4°C° 0 mm 5 mps 740 mmHg 75%
    16:00 -5°C° 0 mm 5 mps 740 mmHg 80%
    17:00 -4°C° 0 mm 4 mps 741 mmHg 85%
    18:00 -5°C° 0 mm 4 mps 741 mmHg 90%
    19:00 -5°C° 0 mm 4 mps 741 mmHg 90%
    20:00 -5°C° 0 mm 4 mps 741 mmHg 91%
    21:00 -5°C° 0 mm 4 mps 741 mmHg 91%
    22:00 -5°C° 0 mm 4 mps 741 mmHg 91%
    23:00 -5°C° 0 mm 4 mps 741 mmHg 91%
    Show more